[[{"header":{"parameterUnit":"m.s-1","parameterCategory":1,"la1":30.2991,"la2":30.254,"lo1":-89.0895,"lo2":-89.0444,"dy":0.0017,"dx":0.0017,"nx":28,"ny":28,"refTime":"2026-02-26T09:00:00:Z","depth":0,"parameterNumber":2,"parameterNumberName":"U-component_of_WINDS"},"data":[0,0,0,0,0,0,0,0,0,0,0,0,0,0,0,0,0,0,0,0,0,0,0,0,0,0,0,0,0,0,0,0,0,0,0,0,0,0,0,0,0,0,0,0,0,0,0,0,0,0,0,0,0,0,0,0,0,0,0.2837,0.2837,0,0.2765,0.2764,0.2763,0.2658,0.2656,0.2655,0.2653,0.2581,0.2581,0.2581,0,0,0,0,0,0,0,0,0,0,0,0,0,0.2886,0.2885,0.2838,0.2837,0.2836,0.2765,0.2764,0.2763,0.2659,0.2656,0.2654,0.2652,0.2581,0.2581,0.2581,0,0,0,0,0,0,0,0,0,0,0,0,0,0.2844,0.2885,0.2838,0.2775,0.2769,0.2765,0.2764,0.2763,0.2659,0.2656,0.2654,0.2651,0.2581,0.2581,0.2581,0.2633,0,0,0.258,0.2579,0,0,0,0,0,0,0,0,0.2847,0.2843,0.2785,0.2779,0.2772,0.2718,0.2754,0.272,0.266,0.2701,0.2653,0.265,0.2629,0.2624,0.2617,0.263,0.2627,0.2579,0.2579,0.2579,0.2579,0,0,0,0,0,0,0,0.285,0.2845,0.2809,0.2784,0.2777,0.2751,0.2742,0.2747,0.2681,0.2697,0.2689,0.2682,0.2625,0.2618,0.2614,0.2626,0.2579,0.2579,0.2579,0.2579,0.2676,0.2678,0,0,0,0,0,0,0.2862,0.2848,0.2811,0.2807,0.2803,0.2752,0.2742,0.2738,0.2681,0.2669,0.2684,0.2677,0.2619,0.2615,0.2612,0.2668,0.2579,0.2579,0.2579,0.2673,0.2676,0.2679,0,0,0,0,0,0,0.2863,0.286,0.2814,0.2825,0.2817,0.2754,0.2751,0.2738,0.2731,0.2671,0.2659,0.2689,0.2617,0.2612,0.2628,0.2664,0.2579,0.2578,0.267,0.2674,0.2678,0.2783,0,0,0,0,0,0,0.2865,0.2861,0.288,0.2826,0.2817,0.2832,0.2753,0.2739,0.273,0.272,0.2672,0.2662,0.2615,0.2629,0.2628,0.2662,0.2578,0.2666,0.2672,0.2677,0.2776,0.279,0.2802,0,0,0,0,0,0.2867,0.2914,0.2882,0.2878,0.284,0.2834,0.2829,0.2773,0.2734,0.2752,0.2714,0.2663,0.266,0.2632,0.2629,0.2664,0.2664,0.267,0.2676,0.277,0.2787,0.2802,0,0,0,0,0,0,0.2975,0.2906,0.287,0.29,0.2874,0.2817,0.2839,0.2794,0.2779,0.277,0.2702,0.2692,0.2716,0.2691,0.2661,0.2711,0.2654,0.266,0.2726,0.2742,0.2755,0.2761,0.2578,0,0,0,0,0,0.3002,0.3003,0.2942,0.2975,0.2963,0.2904,0.2899,0.2858,0.2828,0.2817,0.2779,0.2753,0.2745,0.2742,0.2733,0.2771,0.2759,0.2794,0.2807,0.2818,0.2825,0.2841,0.2856,0.27,0.27,0.27,0,0,0.3059,0.3021,0.3026,0.2995,0.297,0.2972,0.2895,0.2901,0.2902,0.2818,0.283,0.2802,0.2767,0.2795,0.2805,0.2775,0.2865,0.2826,0.2836,0.2836,0.2849,0.2864,0.2877,0.2704,0.2703,0.2703,0,0,0.3162,0.3134,0.3157,0.3133,0.3095,0.3055,0.306,0.3009,0.2987,0.2998,0.2934,0.2934,0.2924,0.2901,0.2888,0.2981,0.2933,0.2979,0.3049,0.3066,0.3078,0.3089,0.3121,0.3133,0.2986,0.2986,0.2986,0,0.3238,0.3238,0.3175,0.3184,0.3172,0.3095,0.3117,0.3097,0.3059,0.3052,0.3019,0.3002,0.2974,0.2994,0.3016,0.3009,0.3012,0.2985,0.3081,0.3091,0.31,0.313,0.3142,0.2992,0.2991,0.299,0.299,0,0.3331,0.3332,0.3355,0.3319,0.3309,0.3325,0.3265,0.3263,0.3222,0.3185,0.3196,0.3159,0.3139,0.3141,0.3102,0.3155,0.3137,0.3094,0.3035,0.3122,0.3149,0.316,0.3,0.2998,0.2996,0.2995,0,0,0.3503,0.3429,0.3439,0.342,0.3371,0.3371,0.3383,0.3362,0.3361,0.3337,0.3345,0.3336,0.3294,0.328,0.3237,0.3253,0.3326,0.3207,0.3205,0.323,0.3381,0.3414,0.3428,0.3294,0.3296,0.3298,0.3384,0,0.3596,0.3612,0.3555,0.3586,0.3585,0.351,0.352,0.3491,0.3456,0.3451,0.3412,0.3407,0.3353,0.3343,0.3355,0.3315,0.3356,0.3308,0.3301,0.3301,0.3312,0.3442,0.3478,0.3561,0.3394,0.3396,0.3397,0,0.3709,0.3688,0.3718,0.3666,0.3663,0.3674,0.3649,0.3645,0.361,0.3583,0.3566,0.3516,0.3523,0.3467,0.3475,0.3444,0.3437,0.3417,0.3418,0.3416,0.3355,0.3443,0.3586,0.3598,0.3413,0.3412,0.341,0,0.383,0.381,0.3824,0.3811,0.3751,0.3759,0.3734,0.3697,0.3687,0.3666,0.3659,0.3639,0.3629,0.3614,0.3559,0.3524,0.3574,0.3514,0.3552,0.3553,0.3566,0.3566,0.371,0.3563,0.3563,0.3562,0.3562,0,0.394,0.3962,0.3878,0.3887,0.3908,0.3842,0.3864,0.3832,0.3799,0.38,0.3734,0.3737,0.3664,0.3659,0.3616,0.3629,0.3625,0.3603,0.3591,0.3609,0.3612,0.3604,0.3596,0.3565,0.3565,0.3564,0.3564,0,0.4079,0.4024,0.4035,0.3976,0.3962,0.398,0.3929,0.3935,0.3895,0.3897,0.3894,0.3832,0.3821,0.3765,0.3742,0.3713,0.3741,0.3718,0.3753,0.3745,0.3786,0.3782,0.3929,0.3945,0.3789,0.379,0.3792,0,0.4154,0.4168,0.411,0.4105,0.4083,0.4077,0.4067,0.4002,0.3993,0.3953,0.3964,0.3948,0.3932,0.3919,0.3871,0.3853,0.3828,0.3881,0.3825,0.3842,0.3828,0.3828,0.3828,0.3893,0.3895,0.3897,0.3898,0,0.4291,0.4262,0.4249,0.4227,0.4216,0.4195,0.417,0.417,0.4098,0.4092,0.408,0.4067,0.4042,0.4027,0.4,0.3974,0.3924,0.3916,0.3924,0.3942,0.3961,0.395,0.3785,0.3913,0.3912,0.3911,0.391,0.3909,0.4399,0.4407,0.4367,0.4354,0.4329,0.4306,0.4308,0.4268,0.4256,0.4231,0.4193,0.4186,0.4148,0.4107,0.4084,0.4077,0.4049,0.4061,0.4063,0.4067,0.4075,0.3962,0.4072,0.4072,0.4071,0.4071,0.4071,0,0.4532,0.4502,0.4491,0.4457,0.4447,0.44,0.4369,0.4364,0.4358,0.4327,0.4312,0.4297,0.4281,0.4232,0.4211,0.4215,0.4191,0.4211,0.421,0.4205,0.4103,0.4098,0.423,0.423,0.423,0.423,0.423,0.423,0.46,0.4611,0.4577,0.4574,0.4544,0.4536,0.4522,0.4501,0.4475,0.4462,0.4448,0.4415,0.4376,0.4352,0.4335,0.432,0.4315,0.4343,0.4322,0.4227,0.4212,0.4198,0.4192,0.4343,0.4343,0.4424,0.4424,0.4425]},{"header":{"parameterUnit":"m.s-1","parameterCategory":1,"la1":30.2991,"la2":30.254,"lo1":-89.0895,"lo2":-89.0444,"dy":0.0017,"dx":0.0017,"nx":28,"ny":28,"refTime":"2026-02-26T09:00:00:Z","depth":0,"parameterNumber":3,"parameterNumberName":"V-component_of_WINDS"},"data":[0,0,0,0,0,0,0,0,0,0,0,0,0,0,0,0,0,0,0,0,0,0,0,0,0,0,0,0,0,0,0,0,0,0,0,0,0,0,0,0,0,0,0,0,0,0,0,0,0,0,0,0,0,0,0,0,0,0,2.6208,2.6208,0,2.6272,2.6273,2.6273,2.6264,2.6262,2.6261,2.626,2.6322,2.6325,2.6327,0,0,0,0,0,0,0,0,0,0,0,0,0,2.6071,2.6074,2.6207,2.6208,2.6209,2.6272,2.6273,2.6273,2.6264,2.6262,2.6261,2.626,2.6321,2.6324,2.6328,0,0,0,0,0,0,0,0,0,0,0,0,0,2.6132,2.6075,2.6207,2.6212,2.6213,2.6272,2.6273,2.6274,2.6264,2.6262,2.6261,2.6259,2.632,2.6324,2.6328,2.6385,0,0,2.634,2.6342,0,0,0,0,0,0,0,0,2.6129,2.6137,2.621,2.6212,2.6213,2.6258,2.6247,2.6311,2.6264,2.6244,2.626,2.6258,2.6302,2.6307,2.6323,2.6388,2.639,2.6341,2.6343,2.6345,2.6346,0,0,0,0,0,0,0,2.6125,2.6135,2.6233,2.6211,2.6213,2.6209,2.6216,2.6259,2.6281,2.6246,2.6246,2.6254,2.6302,2.6319,2.6324,2.6391,2.634,2.6344,2.6346,2.6348,2.6504,2.6505,0,0,0,0,0,0,2.612,2.6131,2.6231,2.6235,2.6166,2.6213,2.6221,2.6245,2.6281,2.6285,2.6255,2.6253,2.6313,2.6319,2.6326,2.6393,2.6345,2.6348,2.6351,2.6502,2.6504,2.6506,0,0,0,0,0,0,2.6117,2.6129,2.6228,2.6183,2.6195,2.6217,2.6245,2.6247,2.6264,2.6288,2.6291,2.6268,2.6312,2.6321,2.637,2.6395,2.635,2.6354,2.65,2.6503,2.6505,2.6529,0,0,0,0,0,0,2.6113,2.6128,2.6151,2.6184,2.6198,2.6273,2.6246,2.625,2.6271,2.6269,2.6301,2.6305,2.6311,2.6364,2.6374,2.64,2.6357,2.6498,2.6501,2.6504,2.6526,2.6532,2.6537,0,0,0,0,0,2.6108,2.6155,2.6152,2.6164,2.6227,2.6274,2.6282,2.629,2.6274,2.6296,2.6311,2.6304,2.6391,2.6369,2.638,2.6408,2.6496,2.65,2.6504,2.6524,2.6531,2.6537,0,0,0,0,0,0,2.6124,2.6159,2.6157,2.6215,2.6242,2.6272,2.6301,2.6298,2.6329,2.6325,2.6333,2.634,2.6389,2.6404,2.6379,2.6464,2.6441,2.6448,2.6452,2.646,2.6465,2.646,2.636,0,0,0,0,0,2.6134,2.6171,2.6199,2.6248,2.6262,2.6279,2.63,2.6304,2.6331,2.6342,2.636,2.6385,2.6418,2.644,2.6472,2.6529,2.6534,2.6553,2.6558,2.6563,2.6568,2.6596,2.6604,2.6519,2.6519,2.6519,0,0,2.6155,2.6179,2.6202,2.6252,2.6273,2.6308,2.6288,2.6328,2.6354,2.6347,2.6395,2.6409,2.6438,2.649,2.6515,2.6504,2.6593,2.6568,2.6571,2.6574,2.6601,2.6609,2.6616,2.6522,2.6521,2.6521,0,0,2.6212,2.6235,2.6278,2.6299,2.6331,2.6343,2.6353,2.6384,2.6393,2.6442,2.6437,2.6467,2.6525,2.6545,2.6562,2.6626,2.6619,2.6636,2.6665,2.6693,2.6699,2.6705,2.6726,2.6733,2.6641,2.6641,2.6641,0,2.6234,2.629,2.6299,2.6339,2.636,2.6357,2.6398,2.6418,2.6459,2.6473,2.6461,2.6532,2.6551,2.6607,2.6622,2.6638,2.6648,2.6632,2.6698,2.6704,2.671,2.6729,2.6737,2.6643,2.6643,2.6642,2.6642,0,2.6314,2.6352,2.6382,2.6423,2.6447,2.6488,2.6501,2.6525,2.6526,2.6538,2.6586,2.6609,2.6645,2.6659,2.6661,2.6715,2.6707,2.6696,2.6674,2.6719,2.6737,2.6745,2.6645,2.6644,2.6644,2.6644,0,0,2.6382,2.6427,2.6437,2.6455,2.649,2.6519,2.6558,2.6594,2.6613,2.6641,2.6672,2.6721,2.6711,2.6731,2.6735,2.6759,2.6805,2.6746,2.6746,2.6754,2.6864,2.687,2.6879,2.6802,2.6804,2.6805,2.6861,0,2.644,2.6511,2.6521,2.6583,2.6617,2.6614,2.6648,2.6672,2.6684,2.6713,2.6726,2.6759,2.6745,2.6757,2.6781,2.6795,2.6827,2.6791,2.6829,2.683,2.682,2.6889,2.6896,2.6947,2.6868,2.6869,2.687,0,2.6518,2.6549,2.6615,2.6644,2.6658,2.6689,2.6721,2.6751,2.6777,2.6784,2.6806,2.6806,2.6845,2.6822,2.6873,2.6849,2.6865,2.6874,2.6876,2.6878,2.6852,2.6891,2.6964,2.6971,2.6882,2.6881,2.688,0,2.6558,2.6616,2.6662,2.6678,2.6713,2.6734,2.675,2.6775,2.6796,2.6824,2.6837,2.6869,2.6886,2.6909,2.6918,2.6901,2.6968,2.6946,2.6973,2.6973,2.6986,2.6984,2.7061,2.7,2.7,2.6999,2.6999,0,2.6621,2.6661,2.6681,2.6709,2.6753,2.6762,2.6805,2.6819,2.6841,2.6871,2.687,2.6898,2.6908,2.6936,2.6943,2.6984,2.6992,2.6997,2.6997,2.6996,2.6995,2.7005,2.7001,2.7001,2.7001,2.7001,2.7,0,2.6673,2.6688,2.6738,2.6768,2.6776,2.6807,2.6831,2.6857,2.6869,2.6906,2.6915,2.6933,2.6966,2.6978,2.7018,2.7022,2.7068,2.7067,2.706,2.7059,2.7084,2.7081,2.7168,2.7179,2.7113,2.7113,2.7114,0,2.6711,2.6742,2.6775,2.6795,2.6812,2.6845,2.6866,2.6876,2.6898,2.693,2.6951,2.6985,2.7012,2.7065,2.708,2.711,2.7108,2.7137,2.7113,2.7109,2.7106,2.7103,2.7105,2.7141,2.7141,2.7142,2.7142,0,2.6777,2.6783,2.6814,2.6848,2.6873,2.6899,2.6925,2.6941,2.6955,2.6979,2.7013,2.7034,2.7075,2.7108,2.7138,2.7152,2.7149,2.715,2.7157,2.7155,2.7148,2.715,2.707,2.7148,2.7147,2.7147,2.7146,2.7146,2.6822,2.6848,2.6875,2.691,2.693,2.6954,2.6979,2.6994,2.7024,2.7059,2.7063,2.71,2.7123,2.7165,2.718,2.7207,2.7199,2.721,2.7213,2.7215,2.7216,2.7146,2.7213,2.7213,2.7213,2.7213,2.7213,0,2.6886,2.6903,2.6935,2.6971,2.6997,2.6994,2.7021,2.7043,2.7075,2.7099,2.7126,2.7164,2.7195,2.7213,2.7244,2.7262,2.7261,2.727,2.7267,2.727,2.7222,2.7212,2.727,2.727,2.727,2.727,2.727,2.727,2.6922,2.6966,2.6975,2.7028,2.7044,2.7081,2.7097,2.7118,2.7137,2.718,2.7207,2.7219,2.7239,2.7271,2.7298,2.7303,2.7313,2.7322,2.7325,2.728,2.7274,2.7268,2.7258,2.7325,2.7325,2.737,2.737,2.7371]}]]